Flag for Singapore Weather past 2 weeks in Singapore, Singapore

Now
90 °F

Partly sunny.


Feels Like: 100 °F
Forecast: 81 / 89 °F
Wind: 10 mph from Southwest

Location: Singapore / Paya Lebar

Current Time: Aug 2, 2014 at 4:40:44 PM

Latest Report: Aug 2, 2014 at 4:00 PM


Visibility: N/A

Pressure: 29.74 "Hg

Humidity: 63%

Dew point: 75 °F

Location of SingaporeLocation

Historic Weather in Singapore — Graph

°F

Singapore temperature yesterday

Maximum temperature yesterday: 90 °F (at 3:00 PM)
Minimum temperature yesterday: 81 °F (at 7:00 AM)
Average temperature yesterday: 85 °F

Past Weeks' High & Low Weather Summary

 TemperatureHumidityPressure
High93 °F (Jul 25, 3:00 PM)94% (Jul 20, 8:00 AM)29.89 "Hg (Jul 20, 8:00 AM)
Low75 °F (Jul 27, 9:00 AM)49% (Jul 25, 3:00 PM)29.71 "Hg (Jul 18, 4:00 PM)
Average85 °F75%29.81 "Hg
* Reported Jul 18 3:00 PM — Aug 2 3:00 PM, Singapore, Weather by CustomWeather, © 2014

Note: Actual official high and low records may vary slightly from our data, if they occured in-between our weather recording intervals... More about our weather records

Advertising

Singapore weather history for previous 24 hours

 ConditionsComfort  
Time TempWeatherWind HumidityBarometerVisibility
3:00 PM
Aug 2
90 °FPartly sunny.12 mph67%29.77 "HgN/A
2:00 PM88 °FPartly sunny.12 mph66%29.77 "HgN/A
1:00 PM88 °FPartly sunny.14 mph62%29.80 "HgN/A
12:00 PM86 °FPartly sunny.14 mph75%29.83 "HgN/A
11:00 AM86 °FPartly sunny.9 mph75%29.83 "HgN/A
10:00 AM84 °FScattered clouds.6 mph84%29.83 "HgN/A
9:00 AM82 °FPartly sunny.5 mph89%29.80 "HgN/A
8:00 AM81 °FBroken clouds.6 mph94%29.80 "HgN/A
7:00 AM79 °FPassing clouds.1 mph94%29.80 "HgN/A
6:00 AM79 °FPassing clouds.1 mph89%29.80 "HgN/A
5:00 AM77 °FLight rain. Passing clouds.1 mph94%29.80 "HgN/A
11:00 PM
Aug 1
84 °FPassing clouds.6 mph79%29.83 "HgN/A
10:00 PM84 °FPassing clouds.6 mph79%29.83 "HgN/A
9:00 PM84 °FPartly cloudy.6 mph79%29.80 "HgN/A
8:00 PM84 °FPassing clouds.5 mph74%29.80 "HgN/A
7:00 PM86 °FPartly sunny.9 mph66%29.77 "HgN/A
6:00 PM86 °FScattered clouds.9 mph70%29.77 "HgN/A
5:00 PM86 °FPartly sunny.9 mph70%29.77 "HgN/A
4:00 PM88 °FPartly sunny.10 mph66%29.77 "HgN/A
Weather by CustomWeather, © 2014

See weather overviewHow to use our weather pages